Dewpoint
60 59 59 59 59 59 59 59 59 59 59 59 59 59 60 61 59 38 39 49 53 71 69 46 47 43 42 40 40 42 41 42 39 40 39 49 54 56 59 55 50 52 53 52 51
60 59 59 59 59 59 58 58 59 58 58 58 59 59 60 61 46 30 59 73 70 72 44 44 39 39 38 33 34 37 43 32 33 34 41 50 53 54 57 57 53 53 53 52 51
60 60 59 59 58 59 59 58 58 58 58 58 58 59 60 59 37 27 69 72 70 63 42 44 41 38 37 31 32 34 32 30 32 35 35 52 53 52 52 53 52 53 52 51 51
60 59 59 59 58 59 58 58 57 57 58 58 58 59 60 49 26 31 70 71 71 46 41 44 40 37 38 33 30 33 26 28 30 31 33 37 53 53 56 50 52 55 53 51 51
60 60 60 59 59 59 58 58 58 57 57 58 58 59 52 31 20 33 70 66 47 39 44 44 39 37 37 38 30 29 28 27 28 29 31 35 37 46 55 50 53 55 55 53 52
58 58 59 59 58 58 58 57 57 57 57 58 59 59 47 22 20 30 30 32 42 40 43 44 40 38 38 39 31 34 28 28 25 29 32 34 37 46 49 52 53 55 55 53 53
58 58 58 58 58 58 58 56 57 57 57 59 59 53 38 27 15 18 26 29 31 39 41 42 41 38 37 36 33 30 26 28 27 27 29 37 48 46 46 51 51 53 54 53 53
57 57 57 58 58 57 57 57 57 57 58 60 59 50 33 23 23 15 18 27 28 32 34 37 39 38 38 38 36 28 28 28 29 28 32 43 48 51 49 49 53 52 54 54 54
57 58 58 58 57 57 57 57 57 58 59 58 49 42 28 36 14 14 14 19 26 28 32 34 33 34 35 34 31 31 26 30 32 29 27 32 44 48 43 46 60 56 53 55 55
58 57 57 57 57 56 56 56 57 57 54 47 41 36 33 13 10 4 8 14 23 26 31 34 35 35 33 33 33 35 32 34 31 31 28 30 40 40 42 41 52 58 57 57 55
58 57 57 57 57 56 53 46 44 42 39 29 26 19 12 12 12 10 6 9 18 24 27 32 33 32 31 32 37 35 32 33 34 30 27 31 36 41 43 39 50 59 61 53 51
57 57 57 56 56 55 53 44 34 33 32 33 32 22 14 11 9 10 12 10 18 20 25 27 30 32 31 31 34 33 29 24 32 33 30 31 30 34 37 40 42 57 61 55 54
57 57 56 56 55 53 46 39 36 36 31 27 23 22 13 10 10 9 8 12 16 20 21 24 27 28 29 30 34 33 25 28 35 38 29 28 30 33 35 38 41 43 58 58 59
57 57 57 55 49 45 41 39 38 33 27 23 20 19 18 16 13 9 10 10 12 19 20 21 24 27 26 28 39 34 26 27 29 26 25 31 29 41 49 50 45 44 46 49 52
57 57 56 55 51 44 41 39 39 36 25 21 19 17 16 16 12 7 12 10 10 18 19 20 21 23 25 27 37 29 31 31 28 24 23 28 25 33 43 47 51 45 46 46 49
57 57 56 50 51 48 44 41 38 29 20 23 25 22 14 15 10 10 11 10 10 18 20 20 21 21 23 26 28 29 34 31 27 23 21 23 28 34 40 48 52 46 45 47 47
55 55 55 52 44 43 42 39 31 25 20 23 22 16 12 12 8 11 12 8 9 16 20 20 19 19 21 26 30 28 26 25 22 20 25 32 36 33 35 37 34 40 44 47 45
54 53 54 51 47 45 41 36 31 24 16 20 20 16 14 10 8 8 12 6 10 15 17 18 16 19 21 26 27 27 25 23 25 34 35 34 37 33 31 31 33 37 44 46 46
53 51 48 49 49 44 39 32 27 25 15 20 20 18 15 10 4 7 11 7 9 12 17 18 18 17 26 25 26 29 27 23 20 32 28 26 30 33 32 33 35 37 45 45 47
54 49 46 43 46 43 37 33 27 24 22 24 20 18 17 9 7 6 11 9 5 11 14 17 18 17 22 25 26 28 31 23 24 31 29 26 32 35 41 38 35 38 44 45 50
53 47 42 46 46 41 32 29 27 26 22 25 21 21 17 15 9 7 8 9 7 6 12 13 14 20 21 23 24 23 24 30 25 24 20 19 30 38 42 40 39 39 44 46 50
48 42 46 46 42 35 30 29 31 24 23 24 23 23 21 17 15 9 7 9 8 8 7 12 12 19 21 23 24 23 21 27 26 28 21 19 31 36 38 37 39 41 45 47 52
48 43 45 44 35 31 31 28 26 24 24 22 20 20 22 21 23 16 12 7 7 10 12 9 12 16 22 24 25 21 19 19 13 13 29 21 35 50 47 47 43 44 45 55 56
49 38 41 42 39 35 36 31 26 26 24 21 23 23 25 27 27 27 24 9 7 8 48 29 5 15 25 39 29 21 20 22 19 19 31 34 42 46 46 48 50 45 48 54 57
48 41 47 43 36 34 35 32 27 24 22 23 24 22 27 29 28 28 27 24 13 35 23 10 12 16 26 32 28 20 21 21 22 24 29 36 41 47 49 47 50 44 50 53 57
49 45 45 45 45 37 31 29 30 25 24 20 26 24 27 29 46 46 43 43 23 16 17 12 21 20 23 26 26 25 17 20 23 25 28 29 42 46 50 49 50 48 49 53 61
52 49 45 43 40 39 35 32 30 31 28 29 26 28 32 44 45 53 53 46 37 23 19 16 16 26 26 29 30 28 24 24 28 32 28 26 40 48 47 52 50 49 51 54 62
Lifted_Index
13 13 13 13 13 13 14 14 14 14 14 14 14 13 13 12 11 8 6 6 5 4 3 3 2 1 1 0 -0 -0 -1 -0 -1 -1 -1 -2 -2 -2 -2 -2 -3 -3 -2 -0 0
13 13 13 13 13 13 13 14 14 14 14 14 14 14 13 12 10 8 6 6 5 4 3 3 2 1 0 0 0 -0 -0 0 0 -0 -1 -2 -2 -1 -1 -2 -3 -3 -2 -0 0
13 13 13 13 13 13 13 13 13 14 14 14 14 14 13 12 10 8 7 6 6 4 3 3 2 1 0 0 0 0 -0 0 1 1 -0 -1 -2 -1 -1 -2 -3 -3 -2 -0 0
12 13 13 13 13 13 13 13 13 13 13 14 14 14 13 11 9 8 7 7 6 4 3 2 1 1 -0 -0 0 -0 -0 0 1 1 1 -1 -2 -2 -2 -2 -3 -3 -2 -1 -1
12 12 12 13 13 12 12 13 13 13 13 14 14 13 12 10 9 9 8 7 5 4 2 2 1 0 -1 -1 -0 -0 -0 -0 -0 0 0 -1 -2 -2 -2 -3 -3 -3 -2 -2 -1
12 12 12 12 12 12 12 12 12 13 13 14 14 13 11 9 9 9 9 8 6 4 2 2 1 0 -1 -1 -0 -0 -0 -0 -1 -0 -0 -0 -1 -1 -2 -3 -3 -3 -2 -2 -1
12 12 12 12 12 12 12 12 12 13 13 13 13 12 10 10 10 10 9 8 7 5 3 2 2 1 -0 -1 -0 0 0 -0 -1 -1 -1 -1 -0 -1 -2 -3 -3 -3 -3 -2 -1
12 12 12 12 12 12 12 12 12 12 13 13 12 11 10 10 10 10 10 9 8 6 5 4 3 2 1 -0 -0 0 -0 -0 -1 -0 -0 -1 -0 -1 -2 -3 -3 -3 -3 -3 -2
12 12 12 12 12 12 12 11 12 12 12 12 11 10 9 10 10 10 10 9 8 7 6 5 3 3 1 0 -0 -0 -0 -0 -0 -0 -0 -1 -1 -1 -2 -3 -3 -3 -3 -3 -3
11 11 11 11 11 11 11 10 10 10 10 10 10 9 9 9 9 10 9 9 8 7 6 5 4 3 2 0 -0 -0 -0 -0 -0 0 0 -0 -1 -1 -1 -2 -3 -2 -2 -3 -3
11 11 11 11 11 11 10 9 8 8 8 9 9 8 8 8 9 9 9 9 8 7 6 5 4 3 2 0 -0 -0 -0 -0 -0 0 1 0 -0 -0 -0 -1 -2 -2 -2 -2 -3
10 10 10 11 10 10 9 8 7 7 7 7 8 8 8 8 8 8 8 8 7 7 6 5 4 3 1 0 -0 -0 -1 -0 -0 0 1 0 -0 -1 -0 -1 -2 -3 -3 -2 -2
10 10 10 10 10 9 8 7 7 7 7 7 7 8 8 8 7 7 7 7 7 6 6 4 3 2 1 -0 -1 -1 -1 -1 -0 -0 0 0 -0 -0 -0 -0 -1 -2 -3 -3 -3
10 10 10 10 9 8 7 7 7 7 6 6 6 7 7 7 7 6 6 6 6 5 5 4 2 1 0 -0 -1 -1 -0 -0 -0 -1 -0 -0 -0 -0 -0 -0 -1 -2 -3 -3 -3
10 10 9 9 9 7 7 6 6 5 4 4 5 6 6 6 6 6 5 5 5 5 4 3 1 -0 -0 -0 -1 -0 -0 -0 -0 -1 -1 -0 -0 -1 -0 -0 -1 -2 -2 -3 -3
10 10 9 9 8 7 6 6 6 4 2 3 4 5 6 6 5 5 5 5 5 4 3 2 0 -0 -0 -1 -1 -0 -0 -0 -0 -0 -1 -0 -0 -0 0 0 -0 -1 -2 -2 -3
11 10 9 8 7 6 6 5 4 3 1 2 3 4 5 5 4 4 4 5 4 4 3 2 0 -0 -0 -0 -0 -0 -0 -0 -0 -1 -0 -0 -0 0 1 1 0 -1 -1 -2 -2
10 9 8 7 6 6 6 5 3 2 1 1 2 3 3 3 3 3 4 4 4 3 2 1 0 -0 -0 -0 -0 -1 -1 -1 -1 -0 -0 -0 -0 0 1 1 1 0 -1 -1 -1
9 8 7 6 6 6 5 4 3 1 1 1 1 2 2 2 2 2 2 3 3 3 1 0 -0 -0 -0 -0 -0 -0 -1 -1 -1 -0 -0 -0 -0 -0 0 1 1 0 -1 -1 -1
8 7 6 5 5 5 5 4 3 2 1 2 1 1 0 0 0 0 1 2 2 2 1 0 -0 -1 -1 -0 -0 -0 -0 -0 -0 -0 -0 -1 -1 -1 -0 -0 0 -0 -1 -1 -2
6 5 4 4 4 4 4 4 3 2 3 3 2 1 0 -0 -0 -0 -0 0 1 1 1 0 -0 -1 -1 -1 -0 -0 -0 0 0 -1 -1 -1 -0 -0 -0 -0 -1 -1 -1 -2 -2
5 4 3 3 4 4 4 3 3 3 3 3 3 2 1 0 -0 -1 -1 -1 -0 0 0 1 0 -1 -1 -1 -0 -1 -0 0 -0 -1 -1 -1 -0 0 0 -0 -1 -1 -2 -3 -3
4 4 3 3 3 3 3 2 2 2 3 3 3 2 1 1 -0 -0 -1 -1 -0 0 1 1 0 -0 -1 -0 -0 -0 -1 -1 -1 -1 -1 -0 -0 0 -0 -1 -1 -2 -2 -4 -5
4 3 3 3 3 2 2 1 1 2 3 3 3 2 1 1 0 -0 -0 -1 -1 0 1 2 1 0 -0 -0 0 -0 -1 -1 -1 -1 -0 0 0 1 0 -1 -2 -2 -3 -4 -5
4 3 2 1 1 1 1 0 0 1 2 3 3 2 1 0 -0 -1 -1 -1 -1 0 2 2 2 1 -0 0 0 -0 -1 -1 -0 -0 -0 0 0 1 1 -0 -1 -2 -3 -5 -5
3 3 2 1 1 1 0 0 -0 -0 1 2 2 2 1 -0 -1 -2 -1 -1 -1 0 2 3 2 1 0 0 0 -0 -1 -0 0 -0 -0 0 0 1 0 -1 -2 -3 -4 -5 -6
3 3 2 1 0 -0 -0 -0 -1 -1 -1 0 1 1 0 -1 -2 -2 -2 -1 -1 -0 1 2 2 1 0 0 0 -0 -0 -0 0 0 -0 -0 0 0 -0 -1 -2 -3 -4 -5 -6